Granada, Spain

4:32 AM CEST en Octubre 24, 2018 (GMT +0200)
Granada

Tiempo Historia de LEGR - Julio, 2018

Change the Weather History Date:

Jueves, Julio 12, 2018

  Actual Average Record
Temperature  
Temperatura media 74 ° F -  
Temperatura máxima 95 ° F 92 ° F 114 ° F (2017)
Temperatura mínima 54 ° F 59 ° F 51 ° F (2000)
Cooling Degree Days 10    
Growing Degree Days 24 (Base 50)    
Moisture  
Punto de rocío 45 ° F    
Average Humidity 38    
Maximum Humidity 67    
Minimum Humidity 6    
Precipitación  
Precipitación 0.00 pul - - ()
Presión al nivel del mar  
Presión al nivel del mar 29.98 pul    
Viento  
Velocidad del viento 4 mph ()    
Velocidad máxima del viento 16 mph    
Max Gust Speed 23 mph    
Visibilidad 11.5 Millas    
Eventos      
Averages and records for this station are not official NWS values.
T = Trace of Precipitation, MM = Missing Value Source: Averaged Metar Reports

Daily Weather History Graph

Daily Weather History Graph

Search for Another Location

Airport or City:

Astronomía

Jul. 12, 2018 Salida Puesta
Hora real 7:04 AM CEST 9:36 PM CEST
Crepúsculo civil 6:34 AM CEST 10:06 PM CEST
Crepúsculo náutico 5:56 AM CEST 10:44 PM CEST
Crepúsculo astronómico 5:15 AM CEST 11:25 PM CEST
Luna 6:17 AM CEST (7/12) 9:05 PM CEST (7/12)
Horas de luz 15h 32m
Horas de luz
14h 31m
Creciente menguante, 1% of the Moon is Illuminated
Jul 12
Creciente menguante
Jul 13
Nueva
Jul 19
Cuarto creciente
Jul 27
Luna llena
Ago 4
Cuarto menguante

Hourly Weather History & Observations

Hora (CEST) Temp. Índice de calor Punto de rocío Humedad Presión Visibilidad Wind Dir Velocidad del viento Velocidad de ráfagas Precip Eventos Condiciones
12:00 AM 71 ° F - 45 ° F 27% 29.95 pul 19 mi SSO 5.8 mph - -  
12:00 AM 71.6 ° F - 42.8 ° F 35% 30.01 pul 6.2 mi SSO 5.8 mph - N/A   Desconocido
12:30 AM 69.8 ° F - 42.8 ° F 38% 30.01 pul 6.2 mi Sur 8.1 mph - N/A   Desconocido
1:00 AM 68 ° F - 44 ° F 31% 29.96 pul 19 mi SSO 6.9 mph - -  
1:00 AM 69.8 ° F - 44.6 ° F 40% 30.01 pul 6.2 mi SSO 6.9 mph - N/A   Desconocido
1:30 AM 66.2 ° F - 44.6 ° F 46% 30.01 pul 6.2 mi Variable 4.6 mph - N/A   Desconocido
2:00 AM 65 ° F - 45 ° F 38% 29.98 pul 19 mi Sin viento Sin viento - -  
2:00 AM 66.2 ° F - 44.6 ° F 46% 30.01 pul 6.2 mi Sin viento Sin viento - N/A   Desconocido
2:30 AM 64.4 ° F - 44.6 ° F 49% 30.01 pul 6.2 mi Variable 1.2 mph - N/A   Desconocido
3:00 AM 62 ° F - 45 ° F 43% 29.99 pul 19 mi Sin viento Sin viento - -  
3:00 AM 62.6 ° F - 44.6 ° F 52% 30.01 pul 6.2 mi Sin viento Sin viento - N/A   Desconocido
3:30 AM 62.6 ° F - 44.6 ° F 52% 30.01 pul 6.2 mi Sin viento Sin viento - N/A   Desconocido
4:00 AM 59.0 ° F - 44.6 ° F 59% 30.01 pul 6.2 mi Variable 1.2 mph - N/A   Desconocido
4:30 AM 59.0 ° F - 44.6 ° F 59% 30.01 pul 6.2 mi Sin viento Sin viento - N/A   Desconocido
5:00 AM 57 ° F - 44 ° F 51% 30.00 pul 19 mi Sin viento Sin viento - -  
5:00 AM 57.2 ° F - 44.6 ° F 63% 30.01 pul 6.2 mi Sin viento Sin viento - N/A   Desconocido
5:30 AM 57.2 ° F - 46.4 ° F 67% 30.01 pul 6.2 mi Sin viento Sin viento - N/A   Desconocido
6:00 AM 55 ° F - 44 ° F 58% 30.00 pul 19 mi OSO 2.3 mph - -  
6:00 AM 57.2 ° F - 44.6 ° F 63% 30.01 pul - OSO 1.2 mph - N/A   Despejado
6:30 AM 55.4 ° F - 44.6 ° F 67% 30.01 pul - Variable 2.3 mph - N/A   Despejado
7:00 AM 55 ° F - 44 ° F 56% 30.01 pul 19 mi OSO 2.3 mph - -  
7:00 AM 55.4 ° F - 44.6 ° F 67% 30.01 pul - OSO 1.2 mph - N/A   Despejado
7:30 AM 55.4 ° F - 44.6 ° F 67% 30.01 pul - OSO 3.5 mph - N/A   Despejado
8:00 AM 58 ° F - 45 ° F 51% 30.01 pul 16 mi Oeste 2.3 mph - -   Despejado
8:00 AM 59.0 ° F - 44.6 ° F 59% 30.04 pul - Oeste 1.2 mph - N/A   Despejado
8:30 AM 60.8 ° F - 44.6 ° F 55% 30.04 pul - Sin viento Sin viento - N/A   Despejado
9:00 AM 63 ° F - 45 ° F 41% 30.01 pul 16 mi Sin viento Sin viento - -   Despejado
9:00 AM 62.6 ° F - 44.6 ° F 52% 30.04 pul - Sin viento Sin viento - N/A   Despejado
9:30 AM 66.2 ° F - 46.4 ° F 49% 30.04 pul - Sin viento Sin viento - N/A   Despejado
10:00 AM 68 ° F - 48 ° F 37% 29.99 pul 16 mi Sin viento Sin viento - -  
10:00 AM 68.0 ° F - 46.4 ° F 46% 30.04 pul - Sin viento Sin viento - N/A   Despejado
10:30 AM 71.6 ° F - 46.4 ° F 41% 30.04 pul - Sin viento Sin viento - N/A   Despejado
11:00 AM 75 ° F - 49 ° F 29% 29.95 pul 16 mi Sin viento Sin viento - -   Despejado
11:00 AM 73.4 ° F - 46.4 ° F 38% 30.04 pul - Variable 1.2 mph - N/A   Despejado
11:30 AM 77.0 ° F - 46.4 ° F 34% 30.04 pul - Variable 1.2 mph - N/A   Despejado
12:00 PM 78.8 ° F - 48.2 ° F 34% 30.04 pul - Sin viento Sin viento - N/A   Despejado
12:30 PM 80.6 ° F - 46.4 ° F 30% 30.04 pul - Variable 1.2 mph - N/A   Despejado
1:00 PM 82.4 ° F - 42.8 ° F 25% 30.01 pul - Variable 2.3 mph - N/A   Despejado
1:30 PM 86.0 ° F - 41.0 ° F 20% 30.01 pul - Variable 3.5 mph - N/A   Despejado
2:00 PM 89 ° F - 46 ° F 14% 29.86 pul 16 mi NO 3.5 mph - -   Despejado
2:00 PM 87.8 ° F - 42.8 ° F 21% 30.01 pul - Variable 3.5 mph - N/A   Despejado
3:00 PM 92 ° F - 46 ° F 12% 29.83 pul 16 mi ONO 6.9 mph - -   Despejado
3:00 PM 89.6 ° F - 39.2 ° F 17% 29.98 pul - Variable 6.9 mph - N/A   Despejado
3:30 PM 91.4 ° F - 39.2 ° F 16% 29.98 pul - Variable 6.9 mph - N/A   Despejado
4:00 PM 93.2 ° F - 39.2 ° F 15% 29.95 pul - Oeste 12.7 mph - N/A   Despejado
4:30 PM 93.2 ° F - 39.2 ° F 15% 29.95 pul - Oeste 10.4 mph 23.0 mph N/A   Despejado
5:00 PM 95 ° F - 36 ° F 6% 29.79 pul 14 mi Oeste 16.1 mph - -   Despejado
5:00 PM 95.0 ° F - 32.0 ° F 11% 29.95 pul - Oeste 15.0 mph - N/A   Despejado
5:30 PM 93.2 ° F - 32.0 ° F 11% 29.95 pul 6.2 mi Oeste 16.1 mph - N/A   Parcialmente nublado
6:00 PM 93.2 ° F - 32.0 ° F 11% 29.95 pul 6.2 mi OSO 13.8 mph - N/A   Parcialmente nublado
6:30 PM 93.2 ° F - 33.8 ° F 12% 29.95 pul 6.2 mi OSO 11.5 mph - N/A   Parcialmente nublado
7:00 PM 93 ° F - 52 ° F 16% 29.79 pul 14 mi OSO 9.2 mph - -  
7:00 PM 93.2 ° F - 33.8 ° F 12% 29.95 pul - SO 9.2 mph - N/A   Despejado
7:30 PM 91.4 ° F - 48.2 ° F 23% 29.95 pul - Oeste 6.9 mph - N/A   Despejado
8:00 PM 90 ° F - 55 ° F 21% 29.80 pul 14 mi Oeste 9.2 mph - -   Despejado
9:00 PM 84.2 ° F 83.0 ° F 55.4 ° F 37% 29.95 pul 6.2 mi Oeste 12.7 mph - N/A   Parcialmente nublado
9:30 PM 82.4 ° F 81.7 ° F 55.4 ° F 39% 29.95 pul 6.2 mi Oeste 13.8 mph - N/A   Parcialmente nublado
10:00 PM 80 ° F - 58 ° F 36% 29.88 pul 13 mi Oeste 11.5 mph - -  
10:30 PM 78.8 ° F - 57.2 ° F 47% 30.01 pul - Oeste 13.8 mph - N/A   Despejado
11:00 PM 77.0 ° F - 59.0 ° F 54% 30.01 pul - Oeste 10.4 mph - N/A   Despejado
11:30 PM 75.2 ° F - 59.0 ° F 57% 30.04 pul - OSO 11.5 mph - N/A   Despejado